Regional Weather Roundup
Issued by NWS

Home | Current Version | Previous Version | Graphics & Text | Print | Product List | Glossary Off
Versions: 1 2 3 4 5 6 7 8 9 10 11 12 13 14 15 16 17 18 19 20 21 22 23 24 25 26 27 28 29 30 31 32 33 34 35 36 37 38 39 40 41 42 43 44 45 46 47 48 49 50

000
ASUS43 KMKX 262211
RWRWI

WISCONSIN REGIONAL WEATHER ROUNDUP
NATIONAL WEATHER SERVICE MILWAUKEE/SULLIVAN WI
400 PM CST FRI DEC 26 2014

NOTE: "FAIR" INDICATES FEW OR NO CLOUDS BELOW 12,000 FEET WITH NO
SIGNIFICANT WEATHER AND/OR OBSTRUCTIONS TO VISIBILITY.

WIZ001-002-006>008-014>016-023>028-262300-
NORTHWEST WISCONSIN

CITY           SKY/WX    TMP DP  RH WIND       PRES   REMARKS
SUPERIOR ARPT  CLOUDY    32  24  71 N7        30.07S WCI  26
ASHLAND        CLOUDY    31  27  85 N5        30.06R WCI  26
HAYWARD        CLOUDY    30  26  85 N6        30.03R WCI  24
SIREN          CLOUDY    31  26  82 NE6       30.05R WCI  25
CUMBERLAND     CLOUDY    30  27  86 N7        30.02R WCI  23
RICE LAKE      CLOUDY    32  28  84 N7        30.03R WCI  26
CHETEK         CLOUDY    32  28  86 NW3       30.02R
LADYSMITH      CLOUDY    33  30  88 N6        30.01R WCI  27
EAU CLAIRE     CLOUDY    34  28  79 N7        30.00R WCI  28
MENOMONIE      CLOUDY    33  29  85 N6        30.02R WCI  28
NEW RICHMOND   CLOUDY    31  29  93 N9        30.04R WCI  23
OSCEOLA        CLOUDY    32  30  93 N6        30.07R WCI  26
$$

WIZ003>005-009-010-017-018-262300-
NORTH CENTRAL WISCONSIN

CITY           SKY/WX    TMP DP  RH WIND       PRES   REMARKS
MANITOWISH WTR CLOUDY    30  30 100 N5        29.98S WCI  25
ARBOR VITAE    CLOUDY    32  30  92 N3        29.98S
WOODRUFF       CLOUDY    32  30  92 N3        29.98S
RHINELANDER    CLOUDY    30  28  92 NE5       29.98R WCI  25
EAGLE RIVER    MIX PCPN  30  30  99 N3        29.97S
LAND O LAKES   CLOUDY    31  30  96 N3        29.98S FOG
PHILLIPS       CLOUDY    31  28  91 N7        29.98R WCI  24
TOMAHAWK       CLOUDY    31  29  92 CALM      29.99R FOG
MEDFORD        CLOUDY    32  30  92 NE7       29.97R FOG     WCI  26
MERRILL        CLOUDY    33  32  96 N3        29.98R FOG
$$

WIZ029-030-035-036-043>047-262300-
CENTRAL WISCONSIN

CITY           SKY/WX    TMP DP  RH WIND       PRES   REMARKS
WAUSAU         CLOUDY    34  31  88 N3        29.96R
MOSINEE        CLOUDY    34  34 100 E3        29.98R
MARSHFIELD     CLOUDY    35  30  82 NE6       29.97R WCI  30
STEVENS POINT  CLOUDY    31  31  99 NE6       29.98R FOG     WCI  25
WAUPACA        CLOUDY    34  33  96 CALM      29.99R FOG
WAUTOMA        CLOUDY    42  35  76 CALM      29.97R
WISC RAPIDS    PTCLDY    37  30  75 NE8       29.98R WCI  31
CAMP DOUGLAS   MOCLDY    40  39  94 N2        29.95R
$$

WIZ011>013-019>022-031-037>040-048>050-262300-
NORTHEAST WISCONSIN

CITY           SKY/WX    TMP DP  RH WIND       PRES   REMARKS
ANTIGO         CLOUDY    32  32 100 NE6       29.97R FOG     WCI  26
SHAWANO        CLOUDY    34  33  96 N3        29.99S FOG
OCONTO         CLOUDY    35  34  99 CALM      30.00R
STURGEON BAY   CLOUDY    36  30  80 N6        30.00S WCI  31
GREEN BAY      CLOUDY    37  34  89 N7        29.99R WCI  32
MANITOWOC      MOCLDY    40  37  89 CALM      29.98R
APPLETON       MOCLDY    37  32  81 N10       29.98R WCI  30
CLINTONVILLE   CLOUDY    32  32 100 N3        29.99R FOG
OSHKOSH        MOCLDY    42  35  76 CALM      29.97R
$$

WIZ032>034-041-042-053>061-262300-
SOUTHWEST WISCONSIN

CITY           SKY/WX    TMP DP  RH WIND       PRES   REMARKS
LA CROSSE      MOCLDY    38  32  79 NW12      29.97R WCI  30
SPARTA         CLOUDY    41  32  70 N6        29.96S
VIROQUA        MOCLDY    38  35  87 N3        29.95R
BOSCOBEL       MOCLDY    45  33  63 CALM      29.95R
PRAIRIE DU CHI MOCLDY    43  32  65 CALM      29.96R
PLATTEVILLE    CLOUDY    42  37  82 SW3       29.96R
$$

WIZ056-057-062-063-064-067-068-262300-
SOUTH CENTRAL WISCONSIN

CITY           SKY/WX    TMP DP  RH WIND       PRES   REMARKS
REEDSBURG      MOCLDY    42  34  73 S3        29.94S
BARABOO/DELLS  MOCLDY    43  33  66 CALM      29.94S
LONE ROCK      MOCLDY    46  34  62 S5        29.95R
MINERAL POINT  MOCLDY    43  34  70 CALM      29.94S
MADISON        MOCLDY    43  35  73 S9        29.95S
MIDDLETON      MOCLDY    45  35  67 S7        29.95S
WATERTOWN      MOCLDY    42  36  80 S3        29.96S
MONROE         MOCLDY    43  36  75 S3        29.95S
JANESVILLE     CLEAR     46  36  66 SW6       29.97R
$$

WIZ051-052-058>065-066-070>072-262300-
SOUTHEAST WISCONSIN

CITY           SKY/WX    TMP DP  RH WIND       PRES   REMARKS
MILWAUKEE      MOCLDY    47  35  63 SW5       29.99R
WAUKESHA       PTCLDY    45  36  70 SW12      29.98R
MILWAUKEE/TIMM PTCLDY    45  36  70 S7        29.99R
RACINE         MOCLDY    48  37  65 SW3       30.00R
BURLINGTON     PTCLDY    44  36  72 W3        29.98R
KENOSHA        PTCLDY    48  38  68 SW7       29.98S
FOND DU LAC    MOCLDY    42  35  76 S7        29.96R
SHEBOYGAN      MOCLDY    41  35  79 S7        29.98R
WEST BEND      MOCLDY    43  32  65 CALM      29.97S
JUNEAU         MOCLDY    41  35  79 S6        29.97S
$$

LSZ147-162-262300-
LAKE SUPERIOR

STATION/POSITION TIME  TEMP    WIND        PRES    WAVE
                       AIR SEA DIR/SP/G            HT/PER
                 (UTC) (F)     (DEG/KT/KT) (MB)    (FT/S)
DEVILS ISLAND    2200   33     340/  7/  8 1018.9R
PORT WING        2100   33     360/  4/  7 1018.3
SAXON HARBOR     2140   33     350/  9/ 11 1017.6R
$$

LMZ867-665-643>646-262300-
LAKE MICHIGAN

STATION/POSITION TIME  TEMP    WIND        PRES    WAVE
                       AIR SEA DIR/SP/G            HT/PER
                 (UTC) (F)     (DEG/KT/KT) (MB)    (FT/S)
CHAMBERS ISLAND  2100   35      20/  7/  9 1015.9R
NORTHPORT PIER   2200   35     360/  3/  8 1015.9R
SISTER BAY       2113           10/  9/ 10   N/A
ALGOMA LAKESHORE 2115             CALM       N/A
KEWAUNEE LAKESHO 2100   38     190/  7/  8 1014.0R
SHEBOYGAN LAKESH 2200   40 40  170/ 10/ 10 1015.8R
PORT WASHINGTON  2100   47     250/  4/  6 1015.6
MILWAUKEE LAKESH 2100   47     220/ 10/ 11   N/A
KENOSHA   LAKESH 2200   49     220/  4/  9 1015.6R
$$

TC  - TEMPERATURE IN CELSIUS
VSB - VISIBILITY IN STATUTE MILES
WCI - WIND CHILL INDEX
HX  - HEAT INDEX



USA.gov is the U.S. government's official web portal to all federal, state and local government web resources and services.